Location: Bear Trap Landing
(45.2437°N, 67.7928°W)
Time: 15:04:44
(UTC+00:00)

Envisat - Pass Details

Date: 12 March 2021
Orbit: 764 x 766 km, 98.1° (Epoch: 17 April)

Event Time Altitude Azimuth Distance (km) Brightness Sun altitude
Rises 09:24:40 0° 22° (NNE) 3,243 6.7 -15.6°
Reaches altitude 10° 09:27:15 10° 33° (NNE) 2,311 6.1 -15.1°
Maximum altitude 09:31:43 30° 95° (E) 1,340 5.0 -14.4°
Drops below altitude 10° 09:36:09 10° 156° (SSE) 2,295 5.6 -13.6°
Sets 09:38:42 0° 167° (SSE) 3,215 6.3 -13.2°
